FW9086 Weather Reports


Display with metric or nautical units.
time (UTC)temp
F
wind
direction
speed
MPH
gust
MPH
rain 1hr
in
rain 24hr
in
rain mn
in
humidity
%
barometer
mb
20260902235056 86 159 0.0 0.0 0.00 0.00 0.00 75 1013.3
20260902234550 86 160 0.0 0.0 0.00 0.00 0.00 74 1013.3
20260902234049 87 158 0.0 0.0 0.00 0.00 0.00 73 1013.3
20260902233544 87 154 0.0 0.0 0.00 0.00 0.00 73 1013.2
20260902233038 87 158 0.0 0.0 0.00 0.00 0.00 72 1013.4
20260902232537 87 163 0.0 0.0 0.00 0.00 0.00 72 1013.5
20260902232032 88 160 0.0 0.0 0.00 0.00 0.00 72 1013.4
20260902231527 87 171 0.0 0.0 0.00 0.00 0.00 73 1013.3
20260902231027 88 181 0.0 0.0 0.00 0.00 0.00 73 1013.3
20260902230521 88 188 1.0 1.0 0.00 0.00 0.00 71 1013.4
20260902230021 88 202 1.0 1.0 0.00 0.00 0.00 70 1013.4
20260902225516 88 177 2.0 2.0 0.00 0.00 0.00 71 1013.4
20260902225016 88 180 0.0 1.0 0.00 0.00 0.00 72 1013.3
20260902224514 89 179 0.0 0.0 0.00 0.00 0.00 71 1013.4
20260902224011 89 180 1.0 1.0 0.00 0.00 0.00 71 1013.2
20260902223507 89 155 0.0 0.0 0.00 0.00 0.00 71 1013.4
20260902223006 89 162 0.0 0.0 0.00 0.00 0.00 71 1013.5
20260902222504 89 175 0.0 0.0 0.00 0.00 0.00 70 1013.5
20260902221958 90 176 0.0 1.0 0.00 0.00 0.00 69 1013.6
20260902221457 90 204 2.0 2.0 0.00 0.00 0.00 67 1013.4
20260902220954 90 218 3.0 3.0 0.00 0.00 0.00 67 1013.6
20260902220454 90 227 2.0 2.0 0.00 0.00 0.00 66 1013.4
20260902215948 90 167 1.0 1.0 0.00 0.00 0.00 67 1013.5
20260902215444 91 203 2.0 2.0 0.00 0.00 0.00 66 1013.5
20260902214940 91 177 1.0 1.0 0.00 0.00 0.00 68 1013.7
20260902214438 91 171 1.0 1.0 0.00 0.00 0.00 65 1013.7
20260902213932 91 245 1.0 2.0 0.00 0.00 0.00 66 1013.4
20260902213429 92 241 2.0 2.0 0.00 0.00 0.00 65 1013.5
20260902212928 93 241 3.0 3.0 0.00 0.00 0.00 64 1013.9
20260902212424 94 220 2.0 2.0 0.00 0.00 0.00 61 1013.7
20260902211920 95 178 0.0 0.0 0.00 0.00 0.00 60 1013.7
20260902211415 95 235 2.0 2.0 0.00 0.00 0.00 61 1013.6
20260902210911 95 250 2.0 2.0 0.00 0.00 0.00 63 1013.8
20260902210410 95 192 1.0 2.0 0.00 0.00 0.00 62 1013.8
20260902205909 94 232 1.0 2.0 0.00 0.00 0.00 63 1013.7
20260902205404 94 222 3.0 3.0 0.00 0.00 0.00 59 1014.0
20260902204900 94 253 3.0 5.0 0.00 0.00 0.00 63 1014.0
20260902204359 93 216 2.0 2.0 0.00 0.00 0.00 62 1013.8
20260902203855 94 187 1.0 1.0 0.00 0.00 0.00 60 1013.9
20260902203350 94 205 2.0 2.0 0.00 0.00 0.00 61 1014.1
20260902202844 95 249 3.0 3.0 0.00 0.00 0.00 60 1014.1
20260902202340 94 247 3.0 3.0 0.00 0.00 0.00 61 1013.9
20260902201836 95 253 3.0 3.0 0.00 0.00 0.00 61 1014.0
20260902201336 94 242 2.0 3.0 0.00 0.00 0.00 60 1014.1
20260902200831 95 278 3.0 3.0 0.00 0.00 0.00 61 1014.1
20260902200326 94 252 3.0 3.0 0.00 0.00 0.00 60 1014.1
20260902195822 93 228 2.0 2.0 0.00 0.00 0.00 63 1014.2
20260902195321 93 193 1.0 1.0 0.00 0.00 0.00 64 1014.2
20260902194816 93 272 2.0 2.0 0.00 0.00 0.00 62 1014.1
20260902194311 93 255 4.0 5.0 0.00 0.00 0.00 64 1014.3
20260902193806 93 205 1.0 1.0 0.00 0.00 0.00 62 1014.4
20260902193302 94 173 1.0 1.0 0.00 0.00 0.00 61 1014.4
20260902192801 95 241 2.0 3.0 0.00 0.00 0.00 65 1014.6
20260902192259 94 198 0.0 1.0 0.00 0.00 0.00 63 1014.6
20260902191759 93 241 2.0 2.0 0.00 0.00 0.00 63 1014.7
20260902191254 93 251 2.0 3.0 0.00 0.00 0.00 65 1014.5
20260902190750 92 294 2.0 2.0 0.00 0.00 0.00 63 1014.6
20260902190249 92 220 2.0 2.0 0.00 0.00 0.00 65 1014.7
20260902185745 92 188 1.0 1.0 0.00 0.00 0.00 67 1014.5
20260902185240 92 248 3.0 3.0 0.00 0.00 0.00 64 1014.6
20260902184736 92 210 2.0 3.0 0.00 0.00 0.00 67 1014.6
20260902184232 92 236 3.0 3.0 0.00 0.00 0.00 67 1014.6
20260902183727 92 254 1.0 2.0 0.00 0.00 0.00 65 1014.8
20260902183223 92 196 1.0 1.0 0.00 0.00 0.00 67 1014.6
20260902182719 91 230 3.0 3.0 0.00 0.00 0.00 66 1014.8
20260902182215 92 184 0.0 1.0 0.00 0.00 0.00 65 1014.8
20260902181712 92 256 3.0 3.0 0.00 0.00 0.00 67 1014.7
20260902181211 92 158 1.0 1.0 0.00 0.00 0.00 66 1015.0
20260902180706 92 225 1.0 2.0 0.00 0.00 0.00 65 1014.9
20260902180201 92 256 2.0 2.0 0.00 0.00 0.00 64 1014.8
20260902175701 92 242 4.0 5.0 0.00 0.00 0.00 65 1014.8
20260902175157 91 223 3.0 3.0 0.00 0.00 0.00 64 1015.1
20260902174654 92 225 4.0 5.0 0.00 0.00 0.00 66 1015.3
20260902174149 92 260 3.0 5.0 0.00 0.00 0.00 64 1015.0
20260902173644 92 283 4.0 5.0 0.00 0.00 0.00 66 1015.1
20260902173139 92 260 1.0 1.0 0.00 0.00 0.00 65 1015.1
20260902172633 92 274 3.0 3.0 0.00 0.00 0.00 66 1015.2
20260902172132 92 240 2.0 2.0 0.00 0.00 0.00 66 1015.3
20260902171628 92 215 4.0 6.0 0.00 0.00 0.00 65 1015.2
20260902171124 91 219 2.0 3.0 0.00 0.00 0.00 63 1015.4
20260902170619 92 259 3.0 3.0 0.00 0.00 0.00 65 1015.5
20260902170115 91 183 2.0 3.0 0.00 0.00 0.00 65 1015.3
20260902165614 91 257 3.0 3.0 0.00 0.00 0.00 64 1015.3
20260902165109 91 254 3.0 3.0 0.00 0.00 0.00 67 1015.4
20260902164604 91 163 1.0 2.0 0.00 0.00 0.00 67 1015.3
20260902164103 91 255 3.0 3.0 0.00 0.00 0.00 65 1015.3
20260902163558 91 254 2.0 2.0 0.00 0.00 0.00 67 1015.4
20260902163056 91 254 3.0 3.0 0.00 0.00 0.00 65 1015.5
20260902162551 91 252 3.0 3.0 0.00 0.00 0.00 65 1015.7
20260902162046 90 182 1.0 1.0 0.00 0.00 0.00 66 1015.6
20260902161546 90 213 2.0 2.0 0.00 0.00 0.00 68 1015.7
20260902161042 89 239 3.0 3.0 0.00 0.00 0.00 69 1015.7
20260902160538 90 233 3.0 3.0 0.00 0.00 0.00 68 1015.7
20260902160033 90 178 2.0 2.0 0.00 0.00 0.00 70 1015.7
20260902155526 89 204 2.0 2.0 0.00 0.00 0.00 69 1015.6
20260902155025 89 261 3.0 3.0 0.00 0.00 0.00 70 1015.6
20260902154521 89 228 3.0 3.0 0.00 0.00 0.00 67 1015.6
20260902154015 90 238 2.0 2.0 0.00 0.00 0.00 69 1015.5
20260902153513 90 212 1.0 1.0 0.00 0.00 0.00 70 1015.5
20260902153009 89 235 3.0 3.0 0.00 0.00 0.00 69 1015.5
20260902152506 89 176 1.0 2.0 0.00 0.00 0.00 74 1015.6
20260902152001 89 248 2.0 3.0 0.00 0.00 0.00 71 1015.5
20260902151456 89 243 2.0 3.0 0.00 0.00 0.00 68 1015.5
20260902150950 90 238 2.0 3.0 0.00 0.00 0.00 70 1015.4
20260902150446 90 160 0.0 1.0 0.00 0.00 0.00 71 1015.6
20260902145946 89 199 1.0 2.0 0.00 0.00 0.00 73 1015.7
20260902145441 88 165 0.0 0.0 0.00 0.00 0.00 72 1015.8
20260902144936 87 193 2.0 2.0 0.00 0.00 0.00 75 1015.8
20260902144432 87 169 2.0 2.0 0.00 0.00 0.00 75 1015.7
20260902143932 86 170 1.0 2.0 0.00 0.00 0.00 76 1015.7
20260902143427 85 170 2.0 2.0 0.00 0.00 0.00 76 1015.6
20260902142922 85 169 1.0 1.0 0.00 0.00 0.00 77 1015.8
20260902142419 84 170 2.0 2.0 0.00 0.00 0.00 78 1015.7
20260902141914 83 166 1.0 1.0 0.00 0.00 0.00 81 1015.7
20260902141409 83 166 1.0 1.0 0.00 0.00 0.00 82 1015.5
20260902140908 82 167 1.0 1.0 0.00 0.00 0.00 82 1015.9
20260902140404 82 167 2.0 2.0 0.00 0.00 0.00 82 1016.0
20260902135858 82 165 1.0 1.0 0.00 0.00 0.00 82 1016.0
20260902135354 81 166 2.0 2.0 0.00 0.00 0.00 85 1016.1
20260902134852 81 164 0.0 1.0 0.00 0.00 0.00 84 1016.0
20260902134349 81 165 1.0 1.0 0.00 0.00 0.00 84 1016.1
20260902133843 80 163 1.0 1.0 0.00 0.00 0.00 85 1016.2
20260902133343 80 163 1.0 1.0 0.00 0.00 0.00 85 1016.2
20260902132838 79 163 1.0 1.0 0.00 0.00 0.00 87 1016.1
20260902132333 79 163 1.0 1.0 0.00 0.00 0.00 88 1016.1
20260902131829 78 163 1.0 1.0 0.00 0.00 0.00 88 1016.1
20260902131326 78 163 1.0 1.0 0.00 0.00 0.00 88 1016.0
20260902130825 78 163 1.0 2.0 0.00 0.00 0.00 88 1016.2
20260902130321 78 163 1.0 1.0 0.00 0.00 0.00 88 1015.8
20260902125816 77 162 0.0 0.0 0.00 0.00 0.00 90 1016.0
20260902125312 77 162 0.0 0.0 0.00 0.00 0.00 90 1016.0
20260902124808 77 162 0.0 0.0 0.00 0.00 0.00 91 1015.9
20260902124303 76 161 0.0 0.0 0.00 0.00 0.00 91 1016.0
20260902123758 76 161 0.0 0.0 0.00 0.00 0.00 92 1016.1
20260902123254 75 161 0.0 0.0 0.00 0.00 0.00 92 1016.0
20260902122753 75 161 0.0 0.0 0.00 0.00 0.00 93 1016.0
20260902122249 75 162 0.0 0.0 0.00 0.00 0.00 93 1016.0
20260902121749 75 162 0.0 0.0 0.00 0.00 0.00 93 1016.1
20260902121244 75 161 0.0 0.0 0.00 0.00 0.00 94 1016.2
20260902120739 75 161 0.0 0.0 0.00 0.00 0.00 94 1016.2
20260902120236 75 161 0.0 0.0 0.00 0.00 0.00 94 1015.9
20260902115730 74 161 0.0 0.0 0.00 0.00 0.00 93 1016.2
20260902115226 74 161 0.0 0.0 0.00 0.00 0.00 93 1016.1
20260902114722 74 161 0.0 0.0 0.00 0.00 0.00 93 1016.1
20260902114217 74 161 0.0 0.0 0.00 0.00 0.00 93 1016.2
20260902113712 74 161 0.0 0.0 0.00 0.00 0.00 94 1016.1
20260902113207 74 161 0.0 0.0 0.00 0.00 0.00 94 1015.9
20260902112707 74 161 0.0 0.0 0.00 0.00 0.00 95 1015.7
20260902112204 74 162 0.0 0.0 0.00 0.00 0.00 94 1015.9
20260902111659 74 161 0.0 0.0 0.00 0.00 0.00 94 1015.7
20260902111155 74 161 0.0 0.0 0.00 0.00 0.00 94 1015.6
20260902110650 74 161 0.0 0.0 0.00 0.00 0.00 94 1015.7
20260902110147 74 161 0.0 0.0 0.00 0.00 0.00 94 1015.7
20260902105646 74 161 0.0 0.0 0.00 0.00 0.00 93 1015.7
20260902105142 74 161 0.0 0.0 0.00 0.00 0.00 93 1015.6
20260902104637 74 161 0.0 0.0 0.00 0.00 0.00 94 1015.6
20260902104132 74 161 0.0 0.0 0.00 0.00 0.00 94 1015.4
20260902103632 74 161 0.0 0.0 0.00 0.00 0.00 94 1015.5
20260902103127 74 161 1.0 1.0 0.00 0.00 0.00 94 1015.2
20260902102623 75 161 0.0 1.0 0.00 0.00 0.00 94 1015.6
20260902102120 75 161 0.0 1.0 0.00 0.00 0.00 93 1015.5
20260902101615 74 161 1.0 1.0 0.00 0.00 0.00 94 1015.2
20260902101115 74 161 0.0 1.0 0.00 0.00 0.00 94 1015.1
20260902100609 75 161 0.0 0.0 0.00 0.00 0.00 94 1015.2
20260902100104 75 161 0.0 0.0 0.00 0.00 0.00 94 1015.1
20260902095603 74 162 1.0 1.0 0.00 0.00 0.00 94 1015.3
20260902095103 74 161 0.0 0.0 0.00 0.00 0.00 94 1015.3
20260902094558 74 161 0.0 0.0 0.00 0.00 0.00 94 1015.3
20260902094054 75 160 0.0 0.0 0.00 0.00 0.00 93 1015.2
20260902093553 75 161 0.0 0.0 0.00 0.00 0.00 93 1015.1
20260902093048 75 161 1.0 1.0 0.00 0.00 0.00 93 1015.1
20260902092538 74 161 0.0 0.0 0.00 0.00 0.00 94 1015.1
20260902092033 75 161 0.0 0.0 0.00 0.00 0.00 94 1015.1
20260902091528 75 161 0.0 0.0 0.00 0.00 0.00 94 1015.1
20260902091024 75 161 0.0 0.0 0.00 0.00 0.00 94 1015.1
20260902090520 75 161 0.0 1.0 0.00 0.00 0.00 94 1015.0
20260902090018 75 161 0.0 0.0 0.00 0.00 0.00 93 1015.1
20260902085513 75 160 0.0 0.0 0.00 0.00 0.00 93 1014.9
20260902085008 76 161 0.0 0.0 0.00 0.00 0.00 92 1014.8
20260902084504 76 161 0.0 0.0 0.00 0.00 0.00 91 1014.8
20260902083959 76 161 1.0 1.0 0.00 0.00 0.00 91 1014.9
20260902083455 76 162 1.0 2.0 0.00 0.00 0.00 91 1014.8
20260902082949 76 162 1.0 1.0 0.00 0.00 0.00 90 1014.9
20260902082445 76 161 1.0 1.0 0.00 0.00 0.00 91 1014.8
20260902081941 76 161 1.0 1.0 0.00 0.00 0.00 91 1014.8
20260902081438 76 161 1.0 1.0 0.00 0.00 0.00 91 1014.9
20260902080932 76 161 1.0 1.0 0.00 0.00 0.00 92 1014.8
20260902080428 76 161 1.0 1.0 0.00 0.00 0.00 92 1015.0
20260902075927 76 161 0.0 1.0 0.00 0.00 0.00 92 1014.8
20260902075424 76 160 0.0 0.0 0.00 0.00 0.00 92 1014.8
20260902074919 76 161 0.0 1.0 0.00 0.00 0.00 92 1014.8
20260902074415 76 160 0.0 0.0 0.00 0.00 0.00 91 1014.7
20260902073909 77 161 0.0 0.0 0.00 0.00 0.00 91 1014.8
20260902073405 77 160 0.0 1.0 0.00 0.00 0.00 91 1014.9
20260902072901 77 160 0.0 1.0 0.00 0.00 0.00 90 1014.6
20260902072357 77 161 1.0 2.0 0.00 0.00 0.00 90 1014.8
20260902071853 77 161 1.0 1.0 0.00 0.00 0.00 90 1014.7
20260902071353 77 161 1.0 1.0 0.00 0.00 0.00 90 1014.8
20260902070849 77 160 0.0 0.0 0.00 0.00 0.00 90 1014.7
20260902070344 77 160 0.0 1.0 0.00 0.00 0.00 90 1014.8
20260902065842 77 160 1.0 1.0 0.00 0.00 0.00 89 1014.7
20260902065338 77 160 0.0 1.0 0.00 0.00 0.00 89 1014.7
20260902064833 77 160 0.0 1.0 0.00 0.00 0.00 90 1014.8
20260902064330 77 161 0.0 1.0 0.00 0.00 0.00 90 1014.7
20260902063825 77 161 0.0 0.0 0.00 0.00 0.00 90 1014.9
20260902063325 77 160 0.0 1.0 0.00 0.00 0.00 90 1014.8
20260902062819 77 160 1.0 1.0 0.00 0.00 0.00 90 1014.8
20260902062314 77 160 0.0 0.0 0.00 0.00 0.00 91 1014.9
20260902061813 77 159 0.0 0.0 0.00 0.00 0.00 90 1014.7
20260902061309 77 160 0.0 0.0 0.00 0.00 0.00 90 1014.9
20260902060805 77 160 0.0 0.0 0.00 0.00 0.00 90 1015.0
20260902060301 77 160 0.0 0.0 0.00 0.00 0.00 89 1014.9
20260902055756 77 160 0.0 0.0 0.00 0.00 0.00 89 1014.9
20260902055253 77 160 1.0 1.0 0.00 0.00 0.00 89 1015.0
20260902054753 77 159 0.0 1.0 0.00 0.00 0.00 91 1015.1
20260902054248 77 158 0.0 0.0 0.00 0.00 0.00 90 1015.0
20260902053743 77 159 0.0 0.0 0.00 0.00 0.00 90 1015.0
20260902053243 77 159 0.0 0.0 0.00 0.00 0.00 89 1014.8
20260902052737 78 158 0.0 0.0 0.00 0.00 0.00 89 1014.8
20260902052232 78 158 0.0 0.0 0.00 0.00 0.00 89 1014.7
20260902051732 78 159 0.0 0.0 0.00 0.00 0.00 89 1014.6
20260902051226 78 158 0.0 0.0 0.00 0.00 0.00 89 1014.8
20260902050721 78 159 0.0 0.0 0.00 0.00 0.00 88 1014.7
20260902050217 78 159 0.0 0.0 0.00 0.00 0.00 89 1014.7
20260902045716 78 158 0.0 0.0 0.00 0.00 0.00 89 1014.6
20260902045213 78 159 0.0 0.0 0.00 0.00 0.00 89 1014.8
20260902044708 78 159 0.0 0.0 0.00 0.00 0.00 89 1014.7
20260902044204 78 158 0.0 0.0 0.00 0.00 0.00 89 1014.7
20260902043658 78 158 0.0 0.0 0.00 0.00 0.00 90 1014.5
20260902043153 78 158 0.0 0.0 0.00 0.00 0.00 90 1014.8
20260902042653 78 158 0.0 0.0 0.00 0.00 0.00 90 1014.7
20260902042149 78 158 0.0 0.0 0.00 0.00 0.00 90 1014.8
20260902041648 78 158 0.0 0.0 0.00 0.00 0.00 91 1014.7
20260902041143 78 157 0.0 0.0 0.00 0.00 0.00 91 1014.7
20260902040642 78 158 0.0 0.0 0.00 0.00 0.00 90 1014.8
20260902040138 78 158 0.0 0.0 0.00 0.00 0.00 90 1014.8
20260902035636 78 158 0.0 0.0 0.00 0.00 0.00 90 1014.8
20260902035131 78 158 0.0 0.0 0.00 0.00 0.00 90 1014.6
20260902034630 78 157 0.0 0.0 0.00 0.00 0.00 90 1014.8
20260902034125 78 157 0.0 0.0 0.00 0.00 0.00 90 1014.9
20260902033624 78 157 0.0 0.0 0.00 0.00 0.00 90 1014.8
20260902033119 79 157 0.0 0.0 0.00 0.00 0.00 90 1014.8
20260902032618 79 157 0.0 0.0 0.00 0.00 0.00 90 1014.9
20260902032112 79 157 0.0 0.0 0.00 0.00 0.00 90 1014.8
20260902031607 79 157 0.0 0.0 0.00 0.00 0.00 90 1015.1
20260902031103 79 156 0.0 0.0 0.00 0.00 0.00 90 1015.0
20260902030558 79 157 0.0 0.0 0.00 0.00 0.00 90 1014.9
20260902030058 79 157 0.0 0.0 0.00 0.00 0.00 90 1014.9
20260902025558 79 157 0.0 0.0 0.00 0.00 0.00 90 1015.0
20260902025053 79 157 0.0 0.0 0.00 0.00 0.00 90 1014.9
20260902024549 79 157 0.0 0.0 0.00 0.00 0.00 90 1014.9
20260902024048 79 157 0.0 0.0 0.00 0.00 0.00 90 1014.8
20260902023544 79 157 0.0 0.0 0.00 0.00 0.00 90 1014.6
20260902023039 79 157 0.0 0.0 0.00 0.00 0.00 90 1014.8
20260902022533 79 157 0.0 0.0 0.00 0.00 0.00 90 1014.9
20260902022029 79 157 0.0 0.0 0.00 0.00 0.00 90 1014.8
20260902021525 79 157 0.0 0.0 0.00 0.00 0.00 90 1015.0
20260902021025 79 157 0.0 0.0 0.00 0.00 0.00 89 1014.4
20260902020520 79 157 0.0 0.0 0.00 0.00 0.00 89 1014.5
20260902020016 79 157 0.0 0.0 0.00 0.00 0.00 89 1014.7
20260902015512 80 157 0.0 0.0 0.00 0.00 0.00 90 1014.6
20260902015007 80 157 0.0 0.0 0.00 0.00 0.00 90 1014.5
20260902014503 80 156 0.0 0.0 0.00 0.00 0.00 88 1014.5
20260902013958 80 157 0.0 0.0 0.00 0.00 0.00 89 1014.6
20260902013453 80 157 0.0 0.0 0.00 0.00 0.00 86 1014.4
20260902012948 81 157 0.0 0.0 0.00 0.00 0.00 85 1014.3
20260902012444 81 157 0.0 0.0 0.00 0.00 0.00 85 1014.2
20260902011939 81 157 0.0 0.0 0.00 0.00 0.00 84 1014.2
20260902011435 81 157 0.0 0.0 0.00 0.00 0.00 84 1014.1
20260902010934 81 157 0.0 0.0 0.00 0.00 0.00 83 1014.3
20260902010429 82 157 0.0 0.0 0.00 0.00 0.00 82 1014.1
20260902005928 82 157 0.0 0.0 0.00 0.00 0.00 82 1014.0
20260902005427 82 157 0.0 0.0 0.00 0.00 0.00 81 1014.2
20260902004924 82 157 0.0 0.0 0.00 0.00 0.00 80 1014.2
20260902004423 83 157 0.0 0.0 0.00 0.00 0.00 80 1014.2
20260902003918 83 156 0.0 0.0 0.00 0.00 0.00 79 1014.2
20260902003413 84 156 0.0 0.0 0.00 0.00 0.00 78 1014.3
20260902002909 84 156 0.0 0.0 0.00 0.00 0.00 77 1014.1
20260902002409 84 156 0.0 0.0 0.00 0.00 0.00 77 1014.1
20260902001903 84 156 0.0 0.0 0.00 0.00 0.00 76 1014.1
20260902001359 84 156 0.0 0.0 0.00 0.00 0.00 77 1014.0
20260902000859 85 157 0.0 0.0 0.00 0.00 0.00 77 1014.3
20260902000354 85 156 0.0 0.0 0.00 0.00 0.00 77 1014.2
20260901235849 85 157 0.0 0.0 0.00 0.00 0.00 76 1014.2
20260901235349 85 157 0.0 0.0 0.00 0.00 0.00 76 1014.1